| time (UTC) | temp C | wind direction | speed KPH | gust KPH | rain 1hr cm | rain 24hr cm | rain mn cm | humidity % | barometer mb |
| 20260504081233 | 16 | 0.0 | 0.0 | 0.00 | 0.03 | 0.00 | 81 | 1014.1 | |
| 20260504080132 | 16 | 0.0 | 0.0 | 0.00 | 0.03 | 0.00 | 81 | 1014.1 | |
| 20260504070129 | 14 | 328 | 3.2 | 4.8 | 0.00 | 0.03 | 0.00 | 81 | 1013.7 |
| 20260504050020 | 13 | 338 | 3.2 | 8.0 | 0.00 | 0.03 | 0.00 | 81 | 1012.7 |
| 20260504045019 | 13 | 331 | 3.2 | 8.0 | 0.00 | 0.03 | 0.00 | 81 | 1012.7 |
| 20260504044108 | 13 | 338 | 3.2 | 6.4 | 0.00 | 0.03 | 0.00 | 81 | 1012.7 |
| 20260504043048 | 13 | 338 | 3.2 | 6.4 | 0.00 | 0.03 | 0.00 | 81 | 1012.6 |
| 20260504042107 | 13 | 338 | 4.8 | 11.3 | 0.00 | 0.03 | 0.00 | 80 | 1012.5 |
| 20260504041146 | 13 | 338 | 3.2 | 6.4 | 0.00 | 0.03 | 0.00 | 80 | 1012.3 |
| 20260504040116 | 13 | 0.0 | 0.0 | 0.00 | 0.03 | 0.00 | 80 | 1012.4 | |
| 20260504035225 | 13 | 0 | 8.0 | 11.3 | 0.00 | 0.03 | 0.00 | 78 | 1012.3 |
| 20260504034044 | 13 | 23 | 6.4 | 11.3 | 0.00 | 0.03 | 0.00 | 77 | 1012.2 |
| 20260504033213 | 14 | 0.0 | 0.0 | 0.00 | 0.03 | 0.00 | 77 | 1012.4 | |
| 20260504032112 | 13 | 0.0 | 0.0 | 0.00 | 0.03 | 0.00 | 77 | 1012.5 | |
| 20260504031112 | 13 | 0.0 | 0.0 | 0.00 | 0.03 | 0.00 | 76 | 1012.4 | |
| 20260504030112 | 14 | 0.0 | 0.0 | 0.00 | 0.03 | 0.00 | 77 | 1012.3 | |
| 20260504025111 | 14 | 0.0 | 0.0 | 0.00 | 0.03 | 0.00 | 77 | 1012.4 | |
| 20260504024110 | 14 | 0.0 | 0.0 | 0.00 | 0.03 | 0.00 | 75 | 1012.6 | |
| 20260504023039 | 15 | 0.0 | 0.0 | 0.00 | 0.03 | 0.00 | 75 | 1012.5 | |
| 20260504022208 | 14 | 0.0 | 0.0 | 0.00 | 0.03 | 0.00 | 76 | 1012.6 | |
| 20260504021038 | 14 | 0.0 | 0.0 | 0.00 | 0.03 | 0.00 | 76 | 1012.7 | |
| 20260504020037 | 14 | 0.0 | 0.0 | 0.00 | 0.03 | 0.00 | 75 | 1012.8 | |
| 20260504015122 | 14 | 0.0 | 0.0 | 0.00 | 0.03 | 0.00 | 75 | 1012.8 | |
| 20260504014251 | 14 | 0.0 | 0.0 | 0.00 | 0.03 | 0.00 | 74 | 1012.7 | |
| 20260504013121 | 14 | 0.0 | 0.0 | 0.00 | 0.03 | 0.00 | 73 | 1012.5 | |
| 20260504012050 | 14 | 0.0 | 0.0 | 0.00 | 0.03 | 0.00 | 72 | 1012.5 | |
| 20260504011019 | 14 | 0.0 | 0.0 | 0.00 | 0.03 | 0.00 | 72 | 1012.4 | |
| 20260504010048 | 14 | 0.0 | 0.0 | 0.00 | 0.03 | 0.00 | 72 | 1012.6 | |
| 20260504005048 | 14 | 0.0 | 0.0 | 0.00 | 0.03 | 0.00 | 72 | 1012.6 | |
| 20260504004117 | 14 | 0.0 | 0.0 | 0.00 | 0.03 | 0.00 | 72 | 1012.6 | |
| 20260504003046 | 14 | 0.0 | 0.0 | 0.00 | 0.03 | 0.00 | 71 | 1012.8 | |
| 20260504002046 | 15 | 0.0 | 0.0 | 0.00 | 0.03 | 0.00 | 71 | 1012.6 | |
| 20260504001155 | 15 | 0.0 | 0.0 | 0.00 | 0.03 | 0.00 | 70 | 1012.8 | |
| 20260504000044 | 15 | 0.0 | 0.0 | 0.00 | 0.03 | 0.00 | 70 | 1012.9 | |
| 20260503235103 | 15 | 0.0 | 0.0 | 0.00 | 0.03 | 0.00 | 70 | 1013.0 | |
| 20260503234042 | 15 | 114 | 3.2 | 6.4 | 0.00 | 0.03 | 0.00 | 70 | 1013.1 |
| 20260503233042 | 15 | 0.0 | 0.0 | 0.00 | 0.03 | 0.00 | 70 | 1013.1 | |
| 20260503232111 | 15 | 113 | 1.6 | 4.8 | 0.00 | 0.03 | 0.00 | 70 | 1013.3 |
| 20260503231040 | 15 | 51 | 3.2 | 6.4 | 0.00 | 0.03 | 0.00 | 71 | 1013.5 |
| 20260503230040 | 15 | 358 | 3.2 | 6.4 | 0.00 | 0.03 | 0.00 | 71 | 1013.5 |
| 20260503225149 | 15 | 340 | 3.2 | 4.8 | 0.00 | 0.03 | 0.00 | 71 | 1013.5 |
| 20260503224058 | 15 | 332 | 1.6 | 6.4 | 0.00 | 0.03 | 0.00 | 71 | 1013.6 |
| 20260503223057 | 15 | 342 | 3.2 | 8.0 | 0.00 | 0.03 | 0.00 | 70 | 1013.5 |
| 20260503222107 | 15 | 8 | 3.2 | 6.4 | 0.00 | 0.03 | 0.00 | 69 | 1013.5 |
| 20260503221116 | 15 | 47 | 1.6 | 4.8 | 0.00 | 0.03 | 0.00 | 69 | 1013.5 |
| 20260503220055 | 15 | 0.0 | 0.0 | 0.00 | 0.03 | 0.00 | 70 | 1013.5 | |
| 20260503215035 | 15 | 0.0 | 0.0 | 0.00 | 0.03 | 0.03 | 70 | 1013.5 | |
| 20260503214204 | 15 | 0.0 | 0.0 | 0.00 | 0.03 | 0.03 | 69 | 1013.3 | |
| 20260503213033 | 15 | 0.0 | 0.0 | 0.00 | 0.03 | 0.03 | 69 | 1013.3 | |
| 20260503212032 | 15 | 0.0 | 0.0 | 0.00 | 0.03 | 0.03 | 68 | 1013.3 | |
| 20260503211032 | 15 | 0.0 | 0.0 | 0.00 | 0.03 | 0.03 | 67 | 1013.3 | |
| 20260503210331 | 15 | 0.0 | 0.0 | 0.00 | 0.03 | 0.03 | 67 | 1013.2 | |
| 20260503205150 | 15 | 0.0 | 0.0 | 0.00 | 0.03 | 0.03 | 67 | 1013.2 | |
| 20260503204150 | 15 | 357 | 3.2 | 6.4 | 0.00 | 0.03 | 0.03 | 67 | 1013.0 |
| 20260503203059 | 15 | 350 | 4.8 | 11.3 | 0.03 | 0.03 | 0.03 | 69 | 1012.8 |
| 20260503202029 | 15 | 1 | 4.8 | 11.3 | 0.03 | 0.03 | 0.03 | 69 | 1012.6 |
| 20260503201058 | 15 | 71 | 6.4 | 12.9 | 0.03 | 0.03 | 0.03 | 70 | 1012.6 |
| 20260503200027 | 15 | 44 | 6.4 | 12.9 | 0.03 | 0.03 | 0.03 | 70 | 1012.5 |
| 20260503195026 | 15 | 103 | 4.8 | 22.5 | 0.03 | 0.03 | 0.03 | 71 | 1012.5 |
| 20260503194135 | 15 | 35 | 6.4 | 17.7 | 0.03 | 0.03 | 0.03 | 71 | 1012.5 |
| 20260503193055 | 15 | 37 | 9.7 | 17.7 | 0.00 | 0.00 | 0.00 | 69 | 1012.5 |
| 20260503192114 | 16 | 32 | 8.0 | 25.7 | 0.00 | 0.00 | 0.00 | 68 | 1012.3 |
| 20260503191023 | 16 | 125 | 8.0 | 16.1 | 0.00 | 0.00 | 0.00 | 66 | 1012.4 |
| 20260503190042 | 16 | 164 | 3.2 | 11.3 | 0.00 | 0.00 | 0.00 | 66 | 1012.3 |
| 20260503185022 | 16 | 115 | 9.7 | 22.5 | 0.00 | 0.00 | 0.00 | 66 | 1012.2 |
| 20260503184051 | 16 | 98 | 9.7 | 19.3 | 0.00 | 0.00 | 0.00 | 67 | 1012.3 |
| 20260503183050 | 16 | 144 | 14.5 | 22.5 | 0.00 | 0.00 | 0.00 | 67 | 1012.2 |
| 20260503182050 | 16 | 124 | 6.4 | 24.1 | 0.00 | 0.00 | 0.00 | 69 | 1012.1 |
| 20260503181019 | 16 | 108 | 8.0 | 22.5 | 0.00 | 0.00 | 0.00 | 71 | 1012.1 |
| 20260503180018 | 16 | 101 | 6.4 | 11.3 | 0.00 | 0.00 | 0.00 | 72 | 1012.3 |
| 20260503175108 | 16 | 110 | 4.8 | 11.3 | 0.00 | 0.00 | 0.00 | 72 | 1012.7 |
| 20260503174127 | 16 | 141 | 4.8 | 12.9 | 0.00 | 0.00 | 0.00 | 70 | 1012.8 |
| 20260503173046 | 17 | 344 | 4.8 | 8.0 | 0.00 | 0.00 | 0.00 | 67 | 1013.2 |
| 20260503172045 | 17 | 122 | 9.7 | 19.3 | 0.00 | 0.00 | 0.00 | 64 | 1013.2 |
| 20260503171045 | 17 | 129 | 9.7 | 33.8 | 0.00 | 0.00 | 0.00 | 64 | 1013.1 |
| 20260503170104 | 17 | 135 | 8.0 | 30.6 | 0.00 | 0.00 | 0.00 | 63 | 1013.0 |
| 20260503131027 | 23 | 141 | 8.0 | 25.7 | 0.00 | 0.00 | 0.00 | 55 | 1014.5 |